STARLINK-1205 (45184 NORAD) Tracking and Keplerian Element Data

This shows tracking and keplerian element data for the satellite.

Feedback or suggestion? Click here.




ElementValue
Catalog45184
NameSTARLINK-1205
Epoch Orbit2198
Epoch Day187.50002315
Epoch Year2020
RAAN333.5222
Inclination53.0001
Eccentricity0.0001404
Argument of Perigee114.9442
Mean Anonmoly91.6882
Mean Motion15.05619208
Decay Rate-0.00020274
L11 45184U 20012G 20187.50002315 -.00020274 00000-0 -13748-2 0 9993
L22 45184 53.0001 333.5222 0001404 114.9442 91.6882 15.05619208 21988

Live tracking and technical data element details for STARLINK-1205 (NORAD 45184). STARLINK-1205 can be tracked NOW for your location showing map with azimuth and elevation plus other details from your city location.

Track the satellite on the map from your city or location and see movement details for azimuth, elevation, latitude, longitude, range, height, and movement on the map or in text.







IsCatalogInMostPopularTable: catalog: 45184, numindb: 25
Update: records affected: 1



GetName: 45184 STARLINK-1205

Hit Count: updated at: Mon, 06 Jul 2020 04:30:16 GMT